User: anonymous   Login
Location: Unspecified
(0.0000°N, 0.0000°E)
Time: 20:30:16
(UTC+00:00)
Language:

OBJECT M - Orbit

View from above orbital plane
View from above orbital plane
View from above satellite
View from above satellite

Ground track
Ground track

The orbit data is extracted from the following two-line orbital elements,

1 42836U 17042M   18267.76481024 +.00000028 +00000-0 +82280-5 0  9998
2 42836 097.5856 166.4689 0012061 226.7178 133.3035 14.91085733065187
Epoch (UTC): 24 September 2018 18:21:19
Eccentricity: 0.0012061
inclination: 97.5856°
perigee height: 586 km
apogee height: 603 km
right ascension of ascending node: 166.4689°
argument of perigee: 226.7178°
revolutions per day: 14.91085733
mean anomaly at epoch: 133.3035°
orbit number at epoch: 6518

The dashed part of the orbit path shows where the satellite is in the earth's shadow,  

DLR